Location: Notre Dame Regional High School Observatory
(37.3056°N, 89.6097°W)
Time: 08:51:58
(UTC-05:00)

Okean 2 Rocket - Visible Passes

Search period start: 01 August 2015 00:00
Search period end: 11 August 2015 00:00
Orbit: 618 x 642 km, 82.5° (Epoch: 01 August)

Date Brightness Start Highest point End Pass type
(mag) Time Alt. Az. Time Alt. Az. Time Alt. Az.
01 Aug 6.3 21:19:55 10° WSW 21:22:23 14° WNW 21:24:38 10° NW visible
04 Aug 6.2 20:43:13 10° WSW 20:46:30 19° WNW 20:49:40 10° NNW visible
08 Aug 6.7 20:29:35 10° W 20:31:47 13° WNW 20:33:44 10° NW visible
09 Aug 6.7 05:03:36 10° NE 05:04:48 11° ENE 05:06:18 10° E visible
10 Aug 5.9 05:22:29 10° NNE 05:25:57 23° ENE 05:29:29 10° SE visible
